DELTA 1 DEB, 42082

Orbit data source: Space-Track

DELTA 1 DEB, 42082 is space debris in SSO originally from a launch on Sun, 15 Dec 1968 UTC launched from the Air Force Western Test Range (AFWTR). Debris objects in space refer to the collection of defunct objects orbiting the Earth. Examples of debris include non-operational satellites, rocket bodies, and fragments generated from explosions, collisions, or faulty payload assembly.

Loading next visibility...
Identifier
42082, 1968-114J
Orbit
SSO
Last TLE update
1 day ago
Origin
Manufacturer
Aerojet
Mission
Spacecraft
Bus & Motor
Unknown
Mass
Unknown
Launch date (UTC)
1968-12-15 (56 years ago)
Launch vehicle
Unknown
Launch site
Air Force Western Test Range (AFWTR)
Object type
Payload
Rocket body
Debris
Shape & HBR
Unknown
Radar Cross Section
Small (<0.1 m²)

Expand to show TLE details & history

TLE from 1 day ago
0 DELTA 1 DEB
1 42082U 68114J   25128.10349895  .00000106  00000-0  10741-2 0  9995
2 42082 101.9265  77.2105 0087463 349.3137  23.7790 12.42727038520092
Epoch: 2025-05-08T02:29Z
Definitive object data (Epoch: 2025-05-08T02:29:02.309Z)
Latitude
13.17368°
Longitude
170.95234°
Altitude
1,433.957 km
Speed
7.174 km/s
True Right ascension
04h 57m 33s
True Declination
13° 06' 15"
Sunlit
Object was in daylight at TLE epoch
Visualization TLE readout
Latitude
59.93853°
Longitude
153.75708°
Altitude
1,486.926 km
Speed
7.134 km/s
Apparent Right ascension
04h 55m 17s
Apparent Declination
17° 36' 24"
Sunlit
Object is in daylight
Visualization observer readout
Local Sidereal Time
17:48:38
Azimuth
14.884° NNE
Elevation
-31.148°
Doppler factor
1
Orbital elements
Apogee altitude
1,561.471 km
Perigee altitude
1,423.791 km
Semi-major axis
7,870.768 km
Eccentricity
0.0087463
Inclination
101.9265°
RAAN
77.2105°
Arg. of periapsis
349.3137°
True anomaly
24.1872°
Mean anomaly
23.779°
Eccentric anomaly
23.98269°
Mean motion
3.10826 °/min
BSTAR
0.0010741
Orbital period
115.82 mins
Loading maneuver chart data...
Loading SW <> Apogee altitude chart data...
Loading historical data...
Loading historical data...
Loading historical data...
Loading historical data...
Loading historical data...
Loading historical data...
Loading historical data...

DELTA 1 DEB Visibility forecast

Observer location: undefined°, undefined°

Span
Click to sort rows by Start time (UTC) header in descending order
Start Az.
Max El. time (UTC)
Max El. Az.
Max El.
End time (UTC)
End Az.
17 mins2025-05-09 09:55:16.330Z13.587° NNE2025-05-09 10:04:16.330Z268.332° W43.479°2025-05-09 10:12:16.330Z209.942° SW
8 mins2025-05-09 11:52:16.330Z340.313° N2025-05-09 11:56:16.330Z309.619° NW16.912°2025-05-09 12:00:16.330Z280.098° WNW
13 mins2025-05-09 19:08:16.330Z115.292° SE2025-05-09 19:14:16.330Z54.327° ENE30.927°2025-05-09 19:21:16.330Z357.217° N
14 mins2025-05-09 21:01:16.330Z188.946° SSW2025-05-09 21:07:16.330Z256.25° W37.887°2025-05-09 21:15:16.330Z332.352° NNW
17 mins2025-05-10 09:07:16.330Z23.752° NE2025-05-10 09:16:16.330Z118.966° SE41.624°2025-05-10 09:24:16.330Z184.534° SSW
|